THA465 YMLT-YMML

Flight info

Callsign THA465
Flight time 0h 53m
Altitude 38000
Route LT H215 RAZZI W687 ML
Aircraft A359/H-SDE2E3GHIJ3J4J5LM1ORWXY/LB1D1

Departure

Time 2026-04-14 10:37
Airport Launceston Airport (YMLT)

Arrival

Time 2026-04-14 11:30
Airport Melbourne Airport (YMML)
Time Latitude Longitude Altitude Speed Heading
2026-04-14 10:22 -41.54427 147.20784 590 ft 0 kts 297°
2026-04-14 10:33 -41.54419 147.20777 590 ft 3 kts 328°
2026-04-14 10:33 -41.54399 147.20785 590 ft 3 kts 32°
2026-04-14 10:34 -41.54443 147.20861 591 ft 12 kts 143°
2026-04-14 10:34 -41.54530 147.20927 596 ft 18 kts 151°
2026-04-14 10:34 -41.54663 147.21041 594 ft 28 kts 146°
2026-04-14 10:35 -41.54851 147.21202 590 ft 36 kts 149°
2026-04-14 10:35 -41.55074 147.21390 590 ft 40 kts 146°
2026-04-14 10:35 -41.55229 147.21577 595 ft 21 kts 97°
2026-04-14 10:35 -41.55190 147.21655 597 ft 6 kts
2026-04-14 10:36 -41.55136 147.21634 599 ft 10 kts 334°
2026-04-14 10:36 -41.55006 147.21526 596 ft 56 kts 325°
2026-04-14 10:36 -41.54405 147.20941 603 ft 150 kts 343°
2026-04-14 10:36 -41.53470 147.20064 989 ft 174 kts 309°
2026-04-14 10:37 -41.52720 147.18755 1904 ft 182 kts 292°
2026-04-14 10:37 -41.51779 147.17381 2278 ft 223 kts 312°
2026-04-14 10:37 -41.50313 147.16388 2737 ft 248 kts 329°
2026-04-14 10:37 -41.48632 147.15743 3553 ft 254 kts 330°
2026-04-14 10:38 -41.46929 147.15042 4329 ft 258 kts 325°
2026-04-14 10:38 -41.45257 147.14258 5156 ft 257 kts 322°
2026-04-14 10:38 -41.43588 147.13416 6065 ft 256 kts 321°
2026-04-14 10:38 -41.41928 147.12549 6907 ft 257 kts 320°
2026-04-14 10:39 -41.40261 147.11664 7690 ft 261 kts 320°
2026-04-14 10:39 -41.38564 147.10759 8526 ft 264 kts 320°
2026-04-14 10:39 -41.36851 147.09844 9365 ft 267 kts 320°
2026-04-14 10:39 -41.35119 147.08914 10190 ft 271 kts 319°
2026-04-14 10:40 -41.33326 147.07909 10540 ft 291 kts 319°
2026-04-14 10:40 -41.31379 147.06812 10753 ft 315 kts 323°
2026-04-14 10:40 -41.29341 147.05789 11420 ft 324 kts 325°
2026-04-14 10:40 -41.27187 147.04723 12210 ft 328 kts 324°
2026-04-14 10:41 -41.25043 147.03623 12934 ft 333 kts 323°
2026-04-14 10:41 -41.22869 147.02492 13657 ft 338 kts 323°
2026-04-14 10:41 -41.20664 147.01339 14316 ft 342 kts 323°
2026-04-14 10:41 -41.18437 147.00165 14927 ft 347 kts 323°
2026-04-14 10:42 -41.16168 146.98962 15523 ft 353 kts 324°
2026-04-14 10:42 -41.13881 146.97767 16223 ft 354 kts 323°
2026-04-14 10:42 -41.11581 146.96545 16839 ft 358 kts 323°
2026-04-14 10:42 -41.09258 146.95307 17425 ft 362 kts 323°
2026-04-14 10:43 -41.06909 146.94051 17997 ft 365 kts 323°
2026-04-14 10:43 -41.04534 146.92784 18532 ft 370 kts 324°
2026-04-14 10:43 -41.02135 146.91522 19073 ft 373 kts 324°
2026-04-14 10:43 -40.99714 146.90250 19637 ft 375 kts 324°
2026-04-14 10:44 -40.97282 146.88969 20226 ft 377 kts 324°
2026-04-14 10:44 -40.94833 146.87675 20826 ft 380 kts 324°
2026-04-14 10:44 -40.92375 146.86374 21414 ft 383 kts 323°
2026-04-14 10:44 -40.89896 146.85061 21990 ft 385 kts 323°
2026-04-14 10:45 -40.87394 146.83739 22568 ft 388 kts 324°
2026-04-14 10:45 -40.84876 146.82411 23158 ft 391 kts 324°
2026-04-14 10:45 -40.82338 146.81072 23706 ft 394 kts 324°
2026-04-14 10:45 -40.79778 146.79725 24203 ft 397 kts 324°
2026-04-14 10:46 -40.77203 146.78372 24714 ft 399 kts 324°
2026-04-14 10:46 -40.74644 146.77029 25210 ft 402 kts 323°
2026-04-14 10:46 -40.72039 146.75661 25693 ft 404 kts 323°
2026-04-14 10:46 -40.69418 146.74286 26180 ft 407 kts 323°
2026-04-14 10:47 -40.66781 146.72903 26649 ft 409 kts 323°
2026-04-14 10:47 -40.64128 146.71513 27095 ft 411 kts 323°
2026-04-14 10:47 -40.61458 146.70116 27529 ft 413 kts 323°
2026-04-14 10:47 -40.58779 146.68713 27960 ft 416 kts 323°
2026-04-14 10:48 -40.56080 146.67304 28398 ft 418 kts 323°
2026-04-14 10:48 -40.53363 146.65884 28819 ft 421 kts 323°
2026-04-14 10:48 -40.50634 146.64459 29217 ft 423 kts 323°
2026-04-14 10:48 -40.47888 146.63028 29613 ft 426 kts 323°
2026-04-14 10:49 -40.45125 146.61591 29993 ft 428 kts 323°
2026-04-14 10:49 -40.42352 146.60149 30301 ft 430 kts 323°
2026-04-14 10:49 -40.39563 146.58699 30561 ft 432 kts 323°
2026-04-14 10:49 -40.36757 146.57243 30843 ft 435 kts 323°
2026-04-14 10:50 -40.33945 146.55791 31142 ft 436 kts 323°
2026-04-14 10:50 -40.31118 146.54329 31419 ft 437 kts 323°
2026-04-14 10:50 -40.28279 146.52859 31694 ft 439 kts 323°
2026-04-14 10:50 -40.25433 146.51387 31954 ft 440 kts 323°
2026-04-14 10:51 -40.22576 146.49910 32191 ft 442 kts 323°
2026-04-14 10:51 -40.19711 146.48427 32402 ft 443 kts 323°
2026-04-14 10:51 -40.16845 146.46936 32631 ft 445 kts 323°
2026-04-14 10:51 -40.13964 146.45447 32841 ft 446 kts 323°
2026-04-14 10:52 -40.11104 146.43975 33060 ft 447 kts 323°
2026-04-14 10:52 -40.08205 146.42488 33264 ft 449 kts 323°
2026-04-14 10:52 -40.05289 146.40996 33456 ft 450 kts 323°
2026-04-14 10:53 -39.99466 146.37985 33601 ft 455 kts 324°
2026-04-14 10:53 -39.96563 146.36390 33980 ft 449 kts 321°
2026-04-14 10:53 -39.93723 146.34709 34144 ft 449 kts 320°
2026-04-14 10:54 -39.87975 146.31388 34352 ft 454 kts 322°
2026-04-14 10:54 -39.81920 146.28689 34510 ft 471 kts 333°
2026-04-14 10:54 -39.78656 146.28059 34668 ft 479 kts 340°
2026-04-14 10:55 -39.75290 146.27945 34789 ft 488 kts 347°
2026-04-14 10:55 -39.71876 146.28358 34913 ft 497 kts 354°
2026-04-14 10:55 -39.68468 146.29296 35021 ft 506 kts
2026-04-14 10:56 -39.61814 146.32723 35178 ft 524 kts 14°
2026-04-14 10:56 -39.58708 146.35157 35279 ft 532 kts 21°
2026-04-14 10:56 -39.55745 146.38084 35390 ft 539 kts 27°
2026-04-14 10:56 -39.53001 146.41418 35524 ft 544 kts 33°
2026-04-14 10:57 -39.50422 146.45010 35683 ft 545 kts 36°
2026-04-14 10:57 -39.45507 146.52531 35831 ft 549 kts 38°
2026-04-14 10:58 -39.40727 146.60233 35963 ft 549 kts 39°
2026-04-14 10:58 -39.35990 146.67984 36093 ft 550 kts 39°
2026-04-14 10:59 -39.31246 146.75734 36169 ft 550 kts 39°
2026-04-14 10:59 -39.26509 146.83441 36681 ft 531 kts 26°
2026-04-14 10:59 -39.23550 146.86137 36901 ft 513 kts 13°
2026-04-14 11:00 -39.20362 146.88069 37002 ft 500 kts
2026-04-14 11:00 -39.17077 146.89336 37078 ft 487 kts 354°
2026-04-14 11:00 -39.13770 146.89965 37189 ft 473 kts 345°
2026-04-14 11:00 -39.10530 146.89958 37312 ft 459 kts 336°
2026-04-14 11:01 -39.07426 146.89333 37439 ft 445 kts 327°
2026-04-14 11:01 -39.04533 146.88133 37557 ft 431 kts 319°
2026-04-14 11:01 -39.01889 146.86421 37661 ft 420 kts 311°
2026-04-14 11:01 -38.99581 146.84236 37841 ft 405 kts 301°
2026-04-14 11:02 -38.97523 146.81794 38028 ft 406 kts 316°
2026-04-14 11:02 -38.93284 146.76884 38114 ft 413 kts 306°
2026-04-14 11:03 -38.89992 146.71040 38088 ft 390 kts 284°
2026-04-14 11:03 -38.87017 146.65160 38121 ft 394 kts 288°
2026-04-14 11:04 -38.83977 146.59302 38154 ft 396 kts 290°
2026-04-14 11:04 -38.81248 146.54560 38134 ft 398 kts 292°
2026-04-14 11:05 -38.77841 146.48989 38156 ft 400 kts 293°
2026-04-14 11:05 -38.74385 146.43439 38137 ft 401 kts 293°
2026-04-14 11:06 -38.70910 146.37853 38165 ft 401 kts 293°
2026-04-14 11:06 -38.67427 146.32248 38164 ft 402 kts 293°
2026-04-14 11:07 -38.63944 146.26650 38155 ft 403 kts 294°
2026-04-14 11:07 -38.60447 146.21043 38158 ft 403 kts 294°
2026-04-14 11:08 -38.56970 146.15452 37922 ft 408 kts 293°
2026-04-14 11:08 -38.55179 146.12544 37623 ft 414 kts 294°
2026-04-14 11:08 -38.53406 146.09671 37362 ft 421 kts 295°
2026-04-14 11:08 -38.51550 146.06694 36962 ft 420 kts 295°
2026-04-14 11:09 -38.49760 146.03880 36345 ft 408 kts 295°
2026-04-14 11:09 -38.47979 146.01084 35702 ft 405 kts 295°
2026-04-14 11:09 -38.46216 145.98274 35011 ft 409 kts 295°
2026-04-14 11:10 -38.42625 145.92564 33359 ft 416 kts 297°
2026-04-14 11:10 -38.40766 145.89661 32485 ft 420 kts 298°
2026-04-14 11:10 -38.38914 145.86808 31628 ft 425 kts 299°
2026-04-14 11:10 -38.37006 145.83917 30698 ft 429 kts 301°
2026-04-14 11:11 -38.35054 145.81028 29957 ft 430 kts 301°
2026-04-14 11:11 -38.33106 145.78158 29236 ft 426 kts 301°
2026-04-14 11:11 -38.31193 145.75298 28572 ft 421 kts 301°
2026-04-14 11:11 -38.29332 145.72446 27886 ft 417 kts 300°
2026-04-14 11:12 -38.27510 145.69599 27219 ft 414 kts 300°
2026-04-14 11:12 -38.25708 145.66760 26542 ft 411 kts 300°
2026-04-14 11:12 -38.23920 145.63947 25903 ft 407 kts 300°
2026-04-14 11:12 -38.22146 145.61155 25240 ft 404 kts 300°
2026-04-14 11:13 -38.20381 145.58378 24591 ft 401 kts 300°
2026-04-14 11:13 -38.18633 145.55629 23945 ft 398 kts 300°
2026-04-14 11:13 -38.16893 145.52899 23226 ft 396 kts 300°
2026-04-14 11:13 -38.15164 145.50196 22543 ft 393 kts 300°
2026-04-14 11:14 -38.13442 145.47503 21913 ft 391 kts 300°
2026-04-14 11:14 -38.11735 145.44841 21245 ft 387 kts 300°
2026-04-14 11:14 -38.10039 145.42200 20595 ft 384 kts 300°
2026-04-14 11:14 -38.08362 145.39588 19929 ft 380 kts 300°
2026-04-14 11:15 -38.06721 145.37032 19282 ft 377 kts 300°
2026-04-14 11:15 -38.05073 145.34466 18621 ft 374 kts 300°
2026-04-14 11:15 -38.03394 145.31962 17880 ft 374 kts 306°
2026-04-14 11:15 -38.01380 145.29833 17175 ft 380 kts 317°
2026-04-14 11:16 -37.99067 145.28208 16423 ft 380 kts 324°
2026-04-14 11:16 -37.96720 145.26723 15634 ft 373 kts 324°
2026-04-14 11:16 -37.94430 145.25225 14841 ft 367 kts 323°
2026-04-14 11:16 -37.92200 145.23715 14061 ft 361 kts 322°
2026-04-14 11:17 -37.90009 145.22203 13223 ft 357 kts 322°
2026-04-14 11:17 -37.87842 145.20699 12428 ft 353 kts 322°
2026-04-14 11:17 -37.85699 145.19211 11675 ft 350 kts 322°
2026-04-14 11:17 -37.83616 145.17781 11422 ft 327 kts 320°
2026-04-14 11:18 -37.81715 145.16434 11306 ft 299 kts 316°
2026-04-14 11:18 -37.79981 145.15177 11192 ft 275 kts 316°
2026-04-14 11:18 -37.78356 145.14052 11060 ft 267 kts 317°
2026-04-14 11:18 -37.76684 145.12952 10949 ft 269 kts 329°
2026-04-14 11:19 -37.74938 145.12125 10819 ft 267 kts 337°
2026-04-14 11:19 -37.73187 145.11350 10689 ft 266 kts 343°
2026-04-14 11:19 -37.71499 145.10508 10398 ft 259 kts 316°
2026-04-14 11:19 -37.69980 145.09320 9999 ft 259 kts 313°
2026-04-14 11:20 -37.68400 145.08085 9713 ft 277 kts 315°
2026-04-14 11:20 -37.66708 145.06863 9574 ft 278 kts 317°
2026-04-14 11:20 -37.65016 145.05741 8945 ft 275 kts 320°
2026-04-14 11:20 -37.63279 145.04666 8460 ft 281 kts 321°
2026-04-14 11:21 -37.61516 145.03587 8054 ft 281 kts 321°
2026-04-14 11:21 -37.59753 145.02526 7654 ft 281 kts 322°
2026-04-14 11:21 -37.57988 145.01477 7268 ft 281 kts 322°
2026-04-14 11:21 -37.56217 145.00431 6870 ft 282 kts 323°
2026-04-14 11:22 -37.54444 144.99393 6548 ft 276 kts 323°
2026-04-14 11:22 -37.52757 144.98417 6440 ft 261 kts 323°
2026-04-14 11:22 -37.51116 144.97454 6225 ft 259 kts 323°
2026-04-14 11:22 -37.49495 144.96491 5899 ft 257 kts 323°
2026-04-14 11:23 -37.47880 144.95527 5565 ft 256 kts 322°
2026-04-14 11:23 -37.46318 144.94506 5308 ft 248 kts 314°
2026-04-14 11:23 -37.45269 144.92923 4948 ft 231 kts 279°
2026-04-14 11:23 -37.45140 144.90988 4535 ft 219 kts 251°
2026-04-14 11:24 -37.45416 144.89189 4319 ft 205 kts 248°
2026-04-14 11:24 -37.45723 144.87378 4234 ft 226 kts 247°
2026-04-14 11:24 -37.46090 144.85382 4154 ft 239 kts 247°
2026-04-14 11:24 -37.46440 144.83346 4044 ft 231 kts 248°
2026-04-14 11:25 -37.46896 144.81505 3975 ft 211 kts 227°
2026-04-14 11:25 -37.48101 144.80721 3933 ft 194 kts 180°
2026-04-14 11:25 -37.49424 144.80731 3706 ft 188 kts 167°
2026-04-14 11:25 -37.50709 144.80975 3420 ft 185 kts 166°
2026-04-14 11:26 -37.51963 144.81188 3148 ft 179 kts 168°
2026-04-14 11:26 -37.53187 144.81376 2889 ft 176 kts 167°
2026-04-14 11:26 -37.54398 144.81582 2649 ft 175 kts 167°
2026-04-14 11:26 -37.55587 144.81789 2406 ft 167 kts 167°
2026-04-14 11:27 -37.56680 144.81977 2234 ft 150 kts 167°
2026-04-14 11:27 -37.57667 144.82152 2024 ft 139 kts 167°
2026-04-14 11:27 -37.58613 144.82324 1817 ft 136 kts 166°
2026-04-14 11:27 -37.59541 144.82495 1634 ft 131 kts 166°
2026-04-14 11:28 -37.60423 144.82639 1455 ft 126 kts 166°
2026-04-14 11:28 -37.61287 144.82793 1282 ft 125 kts 164°
2026-04-14 11:28 -37.62145 144.82953 1111 ft 124 kts 164°
2026-04-14 11:28 -37.62998 144.83101 943 ft 123 kts 164°
2026-04-14 11:29 -37.63844 144.83256 782 ft 122 kts 163°
2026-04-14 11:29 -37.64688 144.83405 635 ft 123 kts 163°
2026-04-14 11:29 -37.65531 144.83556 459 ft 121 kts 167°
2026-04-14 11:29 -37.66262 144.83691 414 ft 90 kts 174°
2026-04-14 11:30 -37.65678 144.83566 430 ft 0 kts 179°
2026-04-14 11:30 -37.65741 144.83568 427 ft 19 kts 179°
2026-04-14 11:30 -37.65929 144.83579 420 ft 31 kts 177°
2026-04-14 11:30 -37.66151 144.83608 413 ft 33 kts 172°
2026-04-14 11:31 -37.66382 144.83660 410 ft 33 kts 167°
2026-04-14 11:31 -37.66542 144.83708 407 ft 27 kts 166°
2026-04-14 11:31 -37.66764 144.83769 401 ft 34 kts 169°
2026-04-14 11:31 -37.66993 144.83833 392 ft 21 kts 165°
2026-04-14 11:32 -37.67103 144.83870 389 ft 18 kts 165°
2026-04-14 11:32 -37.67233 144.83917 384 ft 20 kts 163°
2026-04-14 11:32 -37.67302 144.83943 381 ft 11 kts 163°
2026-04-14 11:32 -37.67387 144.83976 378 ft 2 kts 162°
2026-04-14 11:33 -37.67402 144.83981 378 ft 5 kts 162°
2026-04-14 11:33 -37.67453 144.84002 376 ft 10 kts 162°
2026-04-14 11:33 -37.67468 144.84007 376 ft 0 kts 162°
2026-04-14 11:34 -37.67528 144.84031 378 ft 14 kts 162°
2026-04-14 11:34 -37.67646 144.84078 377 ft 21 kts 161°
2026-04-14 11:34 -37.67682 144.84094 372 ft 0 kts 161°